SL-16 R/B, 17590

Orbit data source: Space-Track

SL-16 R/B, 17590 is space debris in LEO originally from a launch on Wed, 18 Mar 1987 UTC launched from the Tyuratam Missile And Space Complex (TTMTR). Debris objects in space refer to the collection of defunct objects orbiting the Earth. Examples of debris include non-operational satellites, rocket bodies, and fragments generated from explosions, collisions, or faulty payload assembly.

Loading next visibility...
Identifier
17590, 1987-027B
Orbit
LEO
Country
Flag of CISCIS
Related business
Manufacturer
Yuzhnoe
Mission
Spacecraft
Bus & Motor
11S772, Unknown motor
Mass
9,000 kg wet, 9,000 kg dry
Launch date (UTC)
1987-03-18 (39 years ago)
Launch vehicle
Unknown
Launch site
Tyuratam Missile And Space Complex (TTMTR)
Object type
Payload
Rocket body
Debris
Shape & HBR
Cyl, 5.2 m
Radar Cross Section
37.829 m², Large (>1 m²)

Expand to show TLE details & history
Last TLE update: 12 hours ago

TLE from 12 hours ago
0 SL-16 R/B
1 17590U 87027B   26130.45356948 -.00000108  00000-0 -29531-4 0  9997
2 17590  70.9994 146.3432 0004504   0.2095 359.9029 14.17170528 24092
Epoch: 2026-05-10T10:53Z
TLE epoch observation values (Epoch: 2026-05-10T10:53:08.403Z)
Latitude
-0.00008°
Longitude
114.80173°
Altitude
834.091 km
Speed
7.438 km/s
True Right ascension
09h 45m 22s
True Declination
0° 00' 00"
Sunlit
Object was in daylight at epoch
Visualization orbit readout
Latitude
Unknown
Longitude
Unknown
Altitude
Unknown
Speed
Unknown
Apparent Right ascension
Unknown
Apparent Declination
Unknown
Sunlit
N/A
Visualization observer readout
Local Sidereal Time
07:22:02
Azimuth
Unknown
Elevation
Unknown
Doppler factor
Unknown
Orbital elements
Apogee altitude
836.108 km
Perigee altitude
829.613 km
Semi-major axis
7,210.998 km
Eccentricity
0.00045
Inclination
70.9994°
RAAN
146.3432°
Arg. of periapsis
0.2095°
True anomaly
359.90281°
Mean anomaly
359.9029°
Eccentric anomaly
359.90286°
Mean motion
3.54446 °/min
Orbital period
101.57 mins
BSTAR
-0.000029531
Loading maneuver chart data...
Computing Atmospheric mass density...
Loading historical data...
Loading historical data...
Loading historical data...
Loading historical data...
Loading historical data...
Loading historical data...
Loading historical data...

Documentation

Showing up to 5 results
|